Mattaponi, VA

8:28 PM EST on February 26, 2017 (GMT -0500)
West Point

Weather History for KFYJ - November, 2012

Change the Weather History Date:

Wednesday, November 28, 2012

  Actual Average (KJGG) Record (KJGG)
Temperature  
Mean Temperature 38 °F -  
Max Temperature 50 °F 63 °F 80 °F (1973)
Min Temperature 26 °F 40 °F 23 °F (1956)
Degree Days  
Heating Degree Days 26    
Moisture  
Dew Point 32 °F    
Average Humidity 83    
Maximum Humidity 100    
Minimum Humidity 48    
Precipitation  
Precipitation 0.00 in - - ()
Sea Level Pressure  
Sea Level Pressure 30.32 in    
Wind  
Wind Speed 3 mph (NW)    
Max Wind Speed 12 mph    
Max Gust Speed 18 mph    
Visibility 8 miles    
Events      
Averages and records for this station are not official NWS values.
T = Trace of Precipitation, MM = Missing Value Source: NWS Daily Summary

Daily Weather History Graph

Daily Weather History Graph

Search for Another Location

Airport or City:

Trip Planner

Search our weather history database for the weather conditions in past years. The results will help you decide how hot, cold, wet, or windy it might be!

Date:

Astronomy

Nov. 28, 2012 Rise Set
Actual Time 7:00 AM EST 4:49 PM EST
Civil Twilight 6:31 AM EST 5:18 PM EST
Nautical Twilight 5:59 AM EST 5:50 PM EST
Astronomical Twilight 5:28 AM EST 6:22 PM EST
Moon 5:03 PM EST (11/28) 6:56 AM EST (11/28)
Length of Visible Light 10h 46m
Length of Day
9h 49m
Full, 100% of the Moon is Illuminated
Nov 28
Full
Dec 6
Last Quarter
Dec 13
New
Dec 20
First Quarter
Dec 28
Full

Hourly Weather History & Observations

Time (EST) Temp. Windchill Dew Point Humidity Pressure Visibility Wind Dir Wind Speed Gust Speed Precip Events Conditions
12:55 AM 35.6 °F - 35.4 °F 99% 30.25 in 10.0 mi Calm Calm - N/A   Clear
1:15 AM 34.9 °F 32.0 °F 34.9 °F 100% 30.26 in 7.0 mi WNW 3.5 mph - N/A   Clear
1:35 AM 34.7 °F - 34.7 °F 100% 30.25 in 10.0 mi Calm Calm - N/A   Clear
1:55 AM 34.7 °F - 34.7 °F 100% 30.26 in 7.0 mi Calm Calm - N/A   Clear
2:15 AM 34.2 °F - 34.2 °F 100% 30.27 in 7.0 mi Calm Calm - N/A   Clear
2:35 AM 33.8 °F - 33.8 °F 100% 30.27 in 5.0 mi Calm Calm - N/A   Clear
2:55 AM 33.8 °F - 33.8 °F 100% 30.28 in 5.0 mi Calm Calm - N/A   Clear
3:15 AM 33.3 °F - 33.3 °F 100% 30.28 in 5.0 mi Calm Calm - N/A   Clear
3:35 AM 33.1 °F - 33.1 °F 100% 30.28 in 5.0 mi Calm Calm - N/A   Clear
3:55 AM 32.9 °F 29.8 °F 32.9 °F 100% 30.27 in 5.0 mi NW 3.5 mph - N/A   Clear
4:15 AM 33.1 °F 30.0 °F 33.1 °F 100% 30.27 in 5.0 mi NW 3.5 mph - N/A   Clear
4:35 AM 32.9 °F 29.8 °F 32.9 °F 100% 30.27 in 5.0 mi NNW 3.5 mph - N/A   Clear
4:55 AM 32.5 °F - 32.5 °F 100% 30.28 in 5.0 mi Calm Calm - N/A   Clear
5:15 AM 32.0 °F - 32.0 °F 100% 30.28 in 4.0 mi Calm Calm - N/A   Clear
5:35 AM 32.0 °F - 32.0 °F 100% 30.29 in 4.0 mi Calm Calm - N/A   Scattered Clouds
5:55 AM 32.2 °F - 32.2 °F 100% 30.29 in 4.0 mi Calm Calm - N/A   Mostly Cloudy
6:15 AM 32.4 °F - 32.4 °F 100% 30.29 in 5.0 mi Calm Calm - N/A   Overcast
6:35 AM 32.5 °F - 32.5 °F 100% 30.30 in 5.0 mi Calm Calm - N/A   Overcast
6:55 AM 32.5 °F 29.3 °F 32.5 °F 100% 30.31 in 4.0 mi NW 3.5 mph - N/A   Mostly Cloudy
7:15 AM 32.5 °F 29.3 °F 32.5 °F 100% 30.32 in 5.0 mi NNW 3.5 mph - N/A   Overcast
7:35 AM 32.9 °F 29.8 °F 32.9 °F 100% 30.33 in 5.0 mi NW 3.5 mph - N/A   Scattered Clouds
7:55 AM 33.4 °F 30.4 °F 33.4 °F 100% 30.33 in 5.0 mi NNW 3.5 mph - N/A   Scattered Clouds
8:15 AM 35.2 °F 32.4 °F 34.9 °F 99% 30.34 in 7.0 mi NW 3.5 mph - N/A   Mostly Cloudy
8:35 AM 36.3 °F 33.7 °F 35.1 °F 95% 30.34 in 7.0 mi NNW 3.5 mph - N/A   Mostly Cloudy
8:55 AM 38.3 °F 34.8 °F 34.2 °F 85% 30.34 in 10.0 mi North 4.6 mph - N/A   Scattered Clouds
9:15 AM 40.3 °F 36.3 °F 33.8 °F 78% 30.34 in 10.0 mi North 5.8 mph - N/A   Clear
9:35 AM 41.9 °F 37.5 °F 32.2 °F 68% 30.34 in 10.0 mi North 6.9 mph - N/A   Clear
9:55 AM 42.8 °F 39.3 °F 31.3 °F 64% 30.35 in 10.0 mi North 5.8 mph - N/A   Clear
10:15 AM 43.9 °F 39.3 °F 31.5 °F 62% 30.34 in 10.0 mi North 8.1 mph - N/A   Clear
10:35 AM 44.6 °F 39.2 °F 31.1 °F 59% 30.34 in 10.0 mi North 10.4 mph - N/A   Clear
10:55 AM 44.6 °F 41.4 °F 30.9 °F 59% 30.34 in 10.0 mi North 5.8 mph - N/A   Clear
11:15 AM 45.5 °F 41.3 °F 30.6 °F 56% 30.34 in 10.0 mi North 8.1 mph - N/A   Clear
11:35 AM 46.0 °F 41.4 °F 30.7 °F 55% 30.33 in 10.0 mi NNW 9.2 mph - N/A   Clear
11:55 AM 46.4 °F 42.4 °F 30.4 °F 54% 30.32 in 10.0 mi NW 8.1 mph - N/A   Clear
12:15 PM 47.3 °F - 30.4 °F 52% 30.31 in 10.0 mi NW 6.9 mph - N/A   Clear
12:35 PM 47.5 °F - 30.4 °F 52% 30.30 in 10.0 mi NNW 6.9 mph - N/A   Clear
12:55 PM 48.2 °F - 31.3 °F 52% 30.29 in 10.0 mi WNW 8.1 mph - N/A   Clear
1:35 PM 49.6 °F - 31.5 °F 50% 30.29 in 10.0 mi West 11.5 mph - N/A   Clear
1:55 PM 50.0 °F - 31.5 °F 49% 30.29 in 10.0 mi WNW 8.1 mph - N/A   Clear
2:15 PM 49.3 °F - 30.2 °F 48% 30.28 in 10.0 mi WNW 8.1 mph 18.4 mph N/A   Clear
2:35 PM 49.1 °F - 31.6 °F 51% 30.28 in 10.0 mi West 10.4 mph - N/A   Clear
2:55 PM 48.9 °F - 31.3 °F 51% 30.29 in 10.0 mi West 8.1 mph - N/A   Clear
3:15 PM 49.1 °F - 31.6 °F 51% 30.29 in 10.0 mi West 9.2 mph - N/A   Clear
3:35 PM 48.6 °F - 31.8 °F 52% 30.30 in 10.0 mi WNW 5.8 mph - N/A   Clear
3:55 PM 48.2 °F - 31.1 °F 52% 30.29 in 10.0 mi WNW 5.8 mph - N/A   Clear
4:15 PM 47.1 °F - 32.0 °F 56% 30.29 in 10.0 mi WNW 4.6 mph - N/A   Clear
4:35 PM 46.2 °F 43.3 °F 31.6 °F 57% 30.30 in 10.0 mi WNW 5.8 mph - N/A   Clear
4:55 PM 43.9 °F 41.3 °F 32.4 °F 64% 30.31 in 10.0 mi West 4.6 mph - N/A   Clear
5:15 PM 42.8 °F 41.1 °F 32.9 °F 68% 30.32 in 10.0 mi West 3.5 mph - N/A   Clear
5:35 PM 37.4 °F - 32.0 °F 81% 30.33 in 10.0 mi Calm Calm - N/A   Clear
5:55 PM 38.3 °F - 32.5 °F 80% 30.33 in 10.0 mi Calm Calm - N/A   Clear
6:15 PM 32.2 °F - 29.5 °F 90% 30.33 in 10.0 mi Calm Calm - N/A   Clear
6:35 PM 34.7 °F - 32.5 °F 92% 30.34 in 10.0 mi Calm Calm - N/A   Clear
6:55 PM 35.2 °F - 32.0 °F 88% 30.34 in 10.0 mi Calm Calm - N/A   Clear
7:15 PM 34.2 °F - 32.0 °F 92% 30.35 in 10.0 mi Calm Calm - N/A   Clear
7:35 PM 31.3 °F - 29.5 °F 93% 30.35 in 10.0 mi Calm Calm - N/A   Clear
7:55 PM 32.9 °F - 31.8 °F 96% 30.36 in 10.0 mi Calm Calm - N/A   Clear
8:15 PM 31.3 °F - 29.7 °F 94% 30.37 in 10.0 mi Calm Calm - N/A   Clear
8:35 PM 31.6 °F - 31.1 °F 98% 30.37 in 10.0 mi Calm Calm - N/A   Clear
8:55 PM 29.3 °F 25.6 °F 28.4 °F 96% 30.38 in 10.0 mi ENE 3.5 mph - N/A   Clear
9:15 PM 30.6 °F - 30.4 °F 99% 30.38 in 10.0 mi Calm Calm - N/A   Clear
9:35 PM 30.4 °F - 30.4 °F 100% 30.39 in 10.0 mi Calm Calm - N/A   Clear
9:55 PM 29.8 °F - 29.8 °F 100% 30.39 in 7.0 mi Calm Calm - N/A   Clear
10:15 PM 29.1 °F - 29.1 °F 100% 30.39 in 7.0 mi Calm Calm - N/A   Clear
10:35 PM 28.0 °F - 28.0 °F 100% 30.40 in 7.0 mi Calm Calm - N/A   Clear
10:55 PM 28.2 °F - 28.2 °F 100% 30.39 in 7.0 mi Calm Calm - N/A   Clear
11:15 PM 28.4 °F - 28.4 °F 100% 30.40 in 7.0 mi Calm Calm - N/A   Clear
11:35 PM 27.5 °F - 27.3 °F 99% 30.41 in 7.0 mi Calm Calm - N/A   Clear
11:55 PM 26.6 °F 22.6 °F 26.6 °F 100% 30.39 in 10.0 mi NNE 3.5 mph - N/A   Clear